Natathlon (1) - Lyonnais (4)

Régionale

VÉNISSIEUX

Du Samedi 11 Decembre 2004 au Dimanche 12 Decembre 2004

Bassin de 25m

50 Papillon Messieurs

Séries

Nom Année Club Pays Temps Points Niv.
1 CATY Matthieu 1992 VILLEURBANNE NATATION FRA 0:32:49 845
2 RODRIGUEZ Johan 1992 EMS BRON FRA 0:32:92 823
3 REBAUD Thomas 1992 EMS BRON FRA 0:33:48 794
4 DANJOUX Cédric 1992 CMO VÉNISSIEUX FRA 0:33:76 780
5 CESPEDES Anthony 1992 UJS LA MULATIÈRE NATATION FRA 0:34:42 748
6 DOUX Victor 1992 UJS LA MULATIÈRE NATATION FRA 0:35:01 719
7 DURAND Florent 1992 TRITON CLUB BELLEVILLE FRA 0:35:26 707
8 NEEL Vincent 1992 EMS BRON FRA 0:35:72 685
9 BRAS Hugo 1992 VILLEURBANNE NATATION FRA 0:36:17 665
10 MESTRALLET Louis 1992 ASPTT LYON FRA 0:36:51 649
11 ROBERTO Vincent 1992 CMO VÉNISSIEUX FRA 0:36:92 630
12 RIBAUD Jérôme 1992 CHASSIEU NATATION FRA 0:37:03 626
13 CHEVRIER Kevin 1992 AC DÉCINES FRA 0:37:46 606
14 NASHAWATI Olivier 1992 CN TARARE FRA 0:38:95 543
15 BALAY Alexis 1992 AS CALUIRE FRA 0:39:25 530
16 SENKEVICH Ilya 1992 CMO VÉNISSIEUX FRA 0:39:63 515
17 HARZELLI Ilhyes 1992 CMO VÉNISSIEUX FRA 0:39:76 509
18 PALAMARA Romain 1993 VILLEURBANNE NATATION FRA 0:39:84 506
19 ZIDI Billal 1992 CMO VÉNISSIEUX FRA 0:39:89 504
20 PAYET BERNOUD Loïc 1993 CMO VÉNISSIEUX FRA 0:39:91 503
21 PHILIPPE Adrien 1992 TRITON CLUB BELLEVILLE FRA 0:40:22 491
22 SCHALL Aurelien 1992 VILLEURBANNE NATATION FRA 0:40:41 484
23 WECKX Thomas 1993 CHASSIEU NATATION FRA 0:41:00 461
24 BORREANI Jonathan 1993 VIENNE DISTRICT NATATION FRA 0:41:06 458
25 CATALA Thomas 1992 SAL ST-PRIEST NATATION FRA 0:41:18 454
26 TOURNADRE Yoan 1992 ASPTT LYON FRA 0:41:35 447
27 KERCHOUNI Yanis 1992 AC DÉCINES FRA 0:41:53 441
28 CURTET Fabien 1993 ASPTT LYON FRA 0:41:59 438
29 LANIER Quentin 1993 VIENNE DISTRICT NATATION FRA 0:41:82 430
30 EXIGA Sébastien 1993 CMO VÉNISSIEUX FRA 0:42:09 420
31 LAENNEC Thibaut 1992 ASPTT LYON FRA 0:42:20 416
32 SANCHEZ Quentin 1992 EMS BRON FRA 0:42:44 407
33 BOUCHE Kévin 1993 CMO VÉNISSIEUX FRA 0:42:46 406
34 CLEMENT Corentin 1992 ASPTT LYON FRA 0:42:72 397
35 GENY DE FLAMMERECOURT Victor 1993 TRITON CLUB BELLEVILLE FRA 0:43:12 383
36 GIRON Thomas 1992 VILLEURBANNE NATATION FRA 0:43:24 379
37 BOCQUELET David 1993 CMO VÉNISSIEUX FRA 0:43:34 375
38 SERMET Kevin 1993 EMS BRON FRA 0:43:50 370
39 BACHELET Quentin 1993 VILLEURBANNE NATATION FRA 0:43:54 368
40 THOUY Adrien 1992 ND VILLEFRANCHE-EN-BEAUJOLAIS FRA 0:43:84 358
41 MOURET Fabien 1993 AC DÉCINES FRA 0:43:87 357
42 BRUN Nicolas 1993 TRITON CLUB BELLEVILLE FRA 0:44:00 353
43 EL GUERFI Ramzi 1992 CMO VÉNISSIEUX FRA 0:44:09 350
44 CHOPIN Thomas 1993 TRITON CLUB BELLEVILLE FRA 0:44:13 348
45 RANNOU Olivier 1992 RILLIEUX NATATION FRA 0:44:14 348
46 CLAUSS Grégor 1992 CMO VÉNISSIEUX FRA 0:44:27 344
47 GUEZE Thomas 1992 LYON NATATION FRA 0:44:88 324
48 DIAS Guillaume 1992 VILLEURBANNE NATATION FRA 0:44:92 322
49 FERNANDEZ Thomas 1993 CHASSIEU NATATION FRA 0:45:12 316
50 LULLIER Massimo 1992 SAL ST-PRIEST NATATION FRA 0:45:51 304
51 MOTTI Pierre 1993 AS CALUIRE FRA 0:45:96 290
52 HUBERT Neals 1993 SAL ST-PRIEST NATATION FRA 0:46:03 288
53 DUONG Kenny 1992 CHASSIEU NATATION FRA 0:46:23 282
54 LEBDIRI Yacine 1993 LYON NATATION FRA 0:46:47 275
55 GUIRAUD Maxime 1993 CHASSIEU NATATION FRA 0:46:80 265
56 LAFORET Cyprien 1993 LYON NATATION FRA 0:47:06 257
57 VALLET Alexandre 1993 VIENNE DISTRICT NATATION FRA 0:47:92 233
58 GUERCHE Manuel 1992 CHASSIEU NATATION FRA 0:48:12 228
59 LESNE Benoît 1992 ASPTT LYON FRA 0:48:56 216
60 CIAFFOLONI Alexi 1993 EMS BRON FRA 0:48:69 213
61 DUMOULIN Jean 1992 AS CALUIRE FRA 0:49:38 195
62 LEVIVIER FAYOLLE Clément 1992 LYON NATATION FRA 0:49:78 185
63 ZAGHAR Emir 1993 VILLEURBANNE NATATION FRA 0:50:95 158
64 DEWEERDT Maxime 1993 AS CALUIRE FRA 0:51:05 156
65 HARISLUR Clement 1992 LYON NATATION FRA 0:51:31 150
66 BONNEVILLE Gauvin 1992 ASPTT LYON FRA 0:51:36 149
67 MOUSSALEM Wissem 1993 LYON NATATION FRA 0:52:15 132
68 SPERANDIO Aurelien 1993 ND VILLEFRANCHE-EN-BEAUJOLAIS FRA 0:52:52 125
69 SALIGNAT Cyril 1993 CMO VÉNISSIEUX FRA 0:52:78 120
70 MOREAU Mathieu 1993 LYON NATATION FRA 0:53:27 110
71 PERRIN Gaëtan 1993 ND VILLEFRANCHE-EN-BEAUJOLAIS FRA 0:54:88 82
72 BERBERIAN Boris 1992 AC DÉCINES FRA - Disq.
73 AIMOND Antoine 1992 LYON NATATION FRA - Disq.
74 BOUCHER Kieran 1992 AS CALUIRE FRA - Disq.